Estación Meteorológica Peña el Pijo (Robertgarden) [ 02/19/20 14:34:38 CET ]

Fecha Hora Presion(HPa) Temp (°C) Humedad % Rocio (°C) Viento ( m/s) Direccion Lluvia 1Hora(mm) Lluvia 24H(mm) LLuvia Total(mm)
2020-Jan-06 01:09:14 1015.600 - - - - NNE     39.88
2020-Jan-06 02:13:46 1015.400 - - - - NNE     39.88
2020-Jan-06 03:12:54 1015.200 - - - - NNE     39.88
2020-Jan-06 04:09:11 1015.400 - - - - NNE     39.88
2020-Jan-06 05:09:23 1015.300 - - - - NNE     39.88
2020-Jan-06 06:09:12 1015.500 - - - - NNE     39.88
2020-Jan-06 07:09:27 1015.700 - - - - NNE     39.88
2020-Jan-06 08:09:31 1016.300 - - - - NNE     39.88
2020-Jan-06 09:08:47 1016.700 - - - - NNE     39.88
2020-Jan-06 10:09:16 1016.600 - - - - NNE     39.88
2020-Jan-06 11:09:15 1016.900 - - - - NNE     39.88
2020-Jan-06 12:09:23 1016.600 - - - - NNE     39.88
2020-Jan-06 13:09:28 1015.400 - - - - NNE     39.88
2020-Jan-06 14:09:04 1014.700 - - - - NNE     39.88
2020-Jan-06 15:08:54 1014.200 - - - - NNE     39.88
2020-Jan-06 16:09:17 1014.400 - - - - NNE     39.88
2020-Jan-06 17:09:33 1014.800 - - - - NNE     39.88
2020-Jan-06 18:09:22 1015.700 - - - - NNE     39.88
2020-Jan-06 19:09:04 1016.400 - - - - NNE     39.88
2020-Jan-06 20:09:12 1017.300 - - - - NNE     39.88
2020-Jan-06 21:09:15 1017.500 - - - - NNE     39.88
2020-Jan-06 22:09:29 1017.800 - - - - NNE     39.88
2020-Jan-06 23:09:12 1018.000 - - - - NNE     39.88

Temperatura Máxima:    Temperatura Mínima:
Presión Máxima:1018.000 Hpa    Presión Mínima:1014.200 Hpa


Volver